Wind_Speed
7 7 7 8 8 8 8 9 10 10 11 12 12 13 14 14 15 15 16 17 17 18 19 20 21 22 21 21 20 20 18 15 13 10 9 8 7 7 9 12 14 16 18
6 6 7 7 7 8 8 9 10 10 11 11 12 13 14 14 15 15 16 17 17 18 19 20 21 21 22 21 21 20 18 15 13 10 8 7 6 6 7 9 12 15 17
6 6 6 6 7 8 8 9 10 10 11 11 12 12 13 14 15 15 16 17 18 18 19 19 20 21 21 21 21 20 18 15 13 10 8 6 6 5 6 8 10 13 16
5 5 6 6 7 8 9 9 10 10 11 11 12 12 13 14 14 15 16 16 17 18 18 19 20 20 21 20 20 19 18 16 14 11 9 7 6 5 5 7 9 11 14
5 6 6 6 7 8 8 9 10 10 11 11 12 12 13 13 14 15 15 16 17 18 18 19 19 20 20 20 19 19 18 16 14 11 9 8 7 6 5 6 7 9 12
6 6 6 6 6 7 8 9 10 10 11 11 12 12 13 14 15 15 15 16 17 17 18 19 19 19 20 19 19 18 17 16 15 12 10 9 8 7 5 5 7 8 11
5 5 5 5 6 6 7 8 9 10 11 12 12 13 14 14 15 15 16 16 17 17 17 18 19 19 20 19 19 18 17 16 15 13 11 10 9 7 6 6 7 9 10
5 5 4 5 5 6 7 8 9 10 11 12 13 14 14 14 15 16 16 17 17 17 18 18 19 20 20 19 19 18 17 16 14 13 12 11 9 9 8 7 7 8 10
4 4 4 4 5 6 7 8 9 10 11 12 13 14 14 15 15 16 17 17 18 18 18 18 19 19 20 20 20 19 18 16 14 13 13 12 10 9 9 7 7 8 9
4 4 4 4 5 6 7 8 9 10 11 12 13 14 14 15 16 16 17 18 18 18 19 19 19 19 20 20 20 20 19 17 15 14 13 13 11 10 10 8 7 8 8
4 4 4 5 6 7 7 8 9 11 12 13 13 14 15 16 17 17 18 19 19 20 20 20 20 20 20 20 21 20 20 19 17 16 15 13 12 12 11 10 9 8 9
4 5 5 6 7 8 8 9 10 11 12 13 14 15 16 17 17 18 18 19 20 21 21 21 21 21 21 21 21 21 21 20 18 17 16 15 14 13 13 13 12 11 10
6 6 6 7 8 9 9 10 11 12 13 15 16 16 17 18 19 19 19 20 21 22 23 23 23 23 23 22 22 22 21 21 20 19 18 17 16 15 15 14 13 12 12
8 8 8 9 10 10 11 12 13 14 15 16 17 18 19 20 20 20 21 22 23 23 24 24 25 25 25 25 25 24 23 22 22 21 20 19 18 17 16 15 15 15 14
9 10 10 11 12 12 13 14 15 16 17 18 19 21 22 22 22 22 23 24 24 25 26 26 27 27 27 27 27 27 26 25 24 23 21 20 20 19 18 17 17 17 16
11 12 12 13 13 14 15 16 17 18 19 20 21 23 24 24 24 25 25 26 27 27 28 28 29 29 30 30 30 30 29 28 27 26 24 23 22 21 21 20 19 18 19
13 13 14 15 16 16 17 18 19 20 21 23 24 25 26 26 27 27 28 28 29 30 30 31 31 32 32 33 33 32 32 31 30 29 28 27 25 24 24 23 22 21 21
15 16 17 17 18 19 20 21 22 23 24 26 27 28 28 28 29 30 30 31 32 32 33 34 34 35 35 35 35 35 34 34 33 33 32 30 29 28 27 26 25 25 24
18 19 20 20 21 21 23 24 25 26 27 28 29 30 30 31 32 33 33 34 35 36 37 37 38 38 38 38 38 38 37 37 36 36 35 34 33 31 31 30 29 27 27
21 21 22 23 23 24 26 27 28 29 30 31 32 33 33 34 35 36 37 38 39 39 40 41 41 42 42 42 42 42 41 40 40 39 38 37 36 34 34 33 32 31 30
23 24 25 26 27 28 29 30 31 32 33 34 35 36 37 38 39 40 41 42 43 44 44 45 45 46 46 46 45 45 45 44 43 42 41 40 39 38 37 37 35 34 33
26 27 28 29 30 31 32 33 34 35 36 37 38 39 40 41 43 44 45 47 47 48 49 49 50 50 50 50 49 49 48 47 46 44 43 42 42 41 40 39 38 37 36
29 30 31 31 32 33 35 36 37 38 40 41 42 43 44 45 47 48 50 51 52 52 53 54 54 54 53 52 51 51 50 48 47 46 45 44 44 45 43 42 42 41 39
32 32 33 34 35 37 38 39 41 42 43 44 45 46 48 49 51 53 54 55 55 56 56 57 56 56 55 54 53 52 51 50 48 47 47 46 46 46 46 45 44 43 42
35 36 36 37 39 40 41 42 44 45 46 47 49 50 52 54 55 56 56 57 58 58 59 58 58 57 55 54 54 54 53 52 50 49 49 48 47 47 47 47 46 45 45
38 39 40 41 42 43 44 46 47 48 49 51 52 54 56 57 58 58 59 59 60 60 60 60 59 58 57 56 55 55 54 53 51 50 49 48 47 47 48 49 48 47 46
Wind_Direction
327 327 326 327 328 330 331 332 334 332 331 333 334 335 337 338 338 338 340 342 343 344 346 348 350 352 352 351 349 347 345 341 334 328 318 302 285 265 247 238 230 225 223
326 327 328 329 331 334 334 335 337 336 335 334 334 334 337 338 339 339 341 342 342 343 345 347 349 352 352 352 352 351 350 347 344 338 330 314 296 275 253 241 232 228 225
322 325 326 330 333 335 336 337 339 338 337 335 334 335 337 339 340 340 341 342 343 343 345 347 348 350 352 353 353 354 355 354 352 347 341 328 312 294 265 247 237 233 229
315 324 328 329 330 332 336 339 340 338 337 336 335 335 336 337 340 341 343 344 345 346 346 348 349 350 352 354 355 356 357 357 356 352 346 337 324 309 280 254 242 238 233
323 331 329 329 329 332 337 340 340 340 338 337 335 335 336 337 339 340 340 342 344 346 347 349 350 352 353 355 357 359 360 359 358 356 351 345 336 323 297 267 252 242 237
330 331 329 329 332 335 338 341 342 341 339 339 338 338 338 338 339 339 340 341 342 344 347 349 351 353 355 356 357 359 360 359 358 357 354 348 340 331 308 278 262 249 240
326 329 334 333 335 338 340 342 342 342 340 339 338 337 337 338 339 339 340 340 340 342 345 348 349 351 354 355 356 356 358 357 356 355 354 351 345 337 319 293 271 257 247
327 334 338 340 339 340 343 344 345 344 343 340 338 337 337 337 337 338 338 339 339 339 340 343 346 348 350 352 352 352 353 353 351 351 350 346 341 340 328 305 285 265 252
328 340 345 343 341 342 344 345 346 347 347 345 344 342 340 339 338 338 337 337 338 337 337 339 341 343 345 347 347 346 346 346 345 344 343 342 335 329 328 312 293 275 256
326 337 340 341 342 343 344 345 345 347 348 348 347 346 343 340 338 337 337 337 336 336 336 336 337 338 339 340 341 341 340 338 337 336 333 332 327 320 319 314 301 284 267
314 315 319 327 331 334 336 339 340 342 343 344 344 343 341 338 337 336 336 335 334 333 332 332 332 332 333 333 334 334 334 332 329 328 325 321 316 312 311 305 292 282 269
299 303 312 321 326 327 329 331 333 334 335 336 337 337 336 336 335 334 334 334 334 332 331 329 328 328 327 327 327 327 327 327 325 321 318 315 309 305 303 298 289 279 267
293 302 311 316 320 322 322 322 324 326 327 329 331 332 332 332 331 331 330 330 329 328 328 328 326 325 324 322 321 320 320 319 319 317 312 307 303 300 299 296 289 280 269
292 298 304 308 312 315 316 316 318 320 322 324 326 326 327 327 326 325 325 325 324 324 323 323 322 320 319 318 317 315 313 312 311 310 307 303 297 293 292 290 285 276 270
291 297 301 304 307 310 311 313 314 316 318 320 322 322 322 322 322 321 320 320 320 320 319 319 318 317 315 314 312 311 309 307 305 304 301 298 294 289 286 285 281 274 269
291 294 298 302 304 306 308 310 312 314 315 317 319 320 320 320 320 319 318 317 317 317 316 316 315 313 312 310 308 306 304 303 301 298 295 291 287 285 282 280 278 273 268
290 293 297 300 302 304 306 308 310 311 312 314 316 316 317 317 317 316 315 315 314 314 314 313 312 310 308 306 304 302 300 297 296 294 291 287 283 280 278 276 274 271 267
288 291 295 298 300 301 303 304 307 308 310 311 312 313 313 313 313 313 313 312 312 312 311 311 309 307 306 304 302 300 297 294 291 289 287 284 280 276 274 272 271 268 265
289 292 294 296 297 299 301 303 305 306 307 308 309 309 309 310 310 310 310 310 309 309 309 308 307 306 304 301 300 297 295 292 288 285 282 280 276 273 271 269 267 265 263
289 291 293 294 295 297 299 300 303 304 305 307 307 307 307 307 308 308 308 308 307 307 306 306 305 304 302 300 297 295 293 290 287 283 280 276 272 269 268 266 264 262 260
288 290 291 293 294 296 298 300 301 303 304 305 305 305 305 306 307 307 307 307 306 305 304 303 303 302 300 297 294 292 290 288 285 282 278 273 268 265 264 263 262 261 258
288 290 291 292 294 296 297 299 300 301 302 303 304 304 305 305 306 306 306 306 305 304 303 302 301 300 298 295 292 289 288 286 283 280 276 271 266 263 260 259 259 258 257
288 290 291 292 294 295 297 298 299 300 301 302 303 304 304 305 306 306 306 305 304 303 302 301 300 299 296 292 289 287 286 284 281 278 274 270 266 262 258 256 256 256 255
287 289 290 292 293 294 296 297 299 300 301 302 303 304 305 305 306 306 306 305 304 303 302 301 300 298 295 291 288 286 284 281 279 275 272 269 264 261 257 254 253 253 253
286 288 290 292 293 294 296 297 299 300 301 302 304 305 305 306 306 306 306 306 305 304 303 301 299 297 295 292 289 286 283 280 277 274 271 267 264 260 255 253 251 250 249
287 289 291 292 293 294 296 298 299 300 302 303 304 305 306 306 306 306 305 306 306 305 303 301 299 297 294 292 290 288 285 280 275 273 270 266 263 259 254 251 250 248 247
Height
5870 5870 5869 5869 5868 5868 5867 5866 5866 5865 5864 5863 5862 5861 5860 5859 5857 5855 5853 5851 5849 5846 5844 5841 5837 5833 5829 5826 5822 5818 5815 5812 5810 5809 5808 5807 5807 5808 5809 5811 5814 5817 5820
5869 5869 5868 5868 5867 5867 5866 5865 5865 5864 5863 5862 5861 5860 5859 5857 5856 5854 5852 5850 5848 5845 5843 5840 5836 5833 5829 5825 5821 5817 5814 5811 5809 5808 5807 5806 5807 5807 5808 5809 5811 5814 5817
5868 5868 5867 5867 5866 5866 5865 5864 5863 5862 5861 5860 5860 5859 5857 5856 5854 5853 5851 5849 5846 5844 5841 5839 5835 5832 5828 5824 5821 5817 5814 5811 5809 5807 5806 5806 5806 5805 5806 5807 5809 5812 5814
5867 5867 5866 5866 5865 5865 5864 5863 5862 5861 5860 5859 5858 5857 5856 5855 5853 5851 5850 5848 5845 5843 5840 5837 5834 5831 5828 5824 5820 5817 5814 5811 5809 5807 5806 5805 5805 5805 5806 5807 5808 5809 5811
5866 5865 5865 5865 5864 5864 5863 5862 5861 5860 5859 5858 5857 5856 5855 5853 5851 5850 5848 5846 5844 5842 5839 5836 5833 5830 5827 5824 5820 5817 5814 5812 5809 5807 5806 5805 5805 5804 5805 5805 5806 5808 5809
5864 5864 5864 5864 5863 5862 5862 5861 5860 5859 5858 5857 5856 5855 5853 5852 5850 5848 5847 5845 5843 5841 5838 5836 5833 5830 5827 5824 5820 5817 5815 5812 5810 5808 5807 5806 5805 5804 5804 5804 5805 5806 5807
5864 5863 5863 5862 5862 5861 5861 5860 5859 5858 5857 5856 5855 5853 5852 5850 5849 5847 5845 5844 5842 5840 5837 5835 5832 5829 5826 5823 5821 5818 5815 5813 5811 5809 5807 5806 5805 5804 5804 5804 5804 5804 5805
5863 5862 5862 5861 5861 5860 5860 5859 5858 5857 5856 5854 5853 5852 5850 5849 5847 5846 5844 5842 5840 5838 5836 5834 5831 5829 5826 5823 5821 5818 5815 5813 5811 5809 5807 5806 5805 5804 5803 5802 5802 5803 5804
5862 5861 5861 5860 5860 5860 5859 5858 5857 5856 5855 5853 5852 5850 5849 5847 5845 5844 5842 5840 5838 5836 5834 5832 5830 5827 5825 5822 5820 5818 5815 5813 5811 5809 5807 5806 5804 5803 5802 5801 5801 5801 5802
5861 5860 5860 5860 5859 5858 5858 5857 5856 5855 5854 5852 5850 5849 5847 5845 5843 5842 5840 5838 5836 5834 5832 5830 5828 5826 5824 5821 5819 5816 5814 5812 5810 5808 5806 5805 5804 5802 5801 5800 5800 5799 5800
5859 5859 5859 5858 5858 5857 5856 5856 5855 5853 5852 5851 5849 5847 5845 5843 5841 5840 5838 5836 5834 5831 5829 5827 5825 5823 5821 5819 5817 5815 5812 5810 5808 5806 5805 5803 5802 5801 5800 5799 5798 5798 5798
5858 5858 5858 5857 5856 5856 5855 5854 5853 5852 5850 5849 5847 5845 5843 5841 5839 5837 5835 5833 5831 5829 5827 5825 5822 5820 5818 5816 5814 5812 5810 5808 5806 5804 5803 5801 5800 5798 5797 5796 5796 5795 5796
5857 5856 5856 5855 5855 5854 5853 5852 5851 5849 5848 5846 5844 5842 5840 5838 5836 5834 5832 5830 5828 5826 5824 5821 5819 5817 5815 5813 5811 5809 5807 5805 5803 5801 5799 5798 5797 5795 5794 5793 5793 5792 5792
5855 5854 5854 5853 5852 5852 5850 5849 5848 5847 5845 5843 5841 5839 5837 5835 5833 5830 5828 5826 5824 5822 5820 5817 5815 5813 5810 5808 5806 5804 5802 5801 5799 5797 5795 5793 5792 5791 5791 5790 5789 5789 5789
5853 5852 5851 5850 5849 5848 5847 5846 5845 5843 5841 5840 5837 5835 5832 5830 5828 5826 5823 5821 5819 5817 5815 5812 5810 5807 5805 5802 5800 5798 5796 5795 5793 5791 5790 5788 5787 5787 5786 5785 5785 5784 5784
5850 5849 5848 5847 5846 5845 5844 5842 5841 5839 5837 5835 5833 5830 5827 5825 5822 5820 5818 5815 5813 5811 5809 5806 5804 5801 5798 5796 5793 5791 5789 5787 5786 5785 5783 5782 5782 5781 5780 5780 5779 5779 5779
5846 5845 5844 5843 5842 5841 5839 5838 5836 5834 5832 5830 5827 5825 5822 5819 5816 5814 5811 5809 5807 5804 5802 5799 5796 5794 5791 5788 5785 5782 5781 5779 5778 5776 5775 5774 5774 5774 5773 5773 5773 5773 5773
5842 5841 5840 5839 5838 5836 5835 5833 5831 5829 5827 5824 5821 5818 5816 5813 5810 5807 5804 5802 5799 5797 5794 5791 5788 5785 5782 5778 5776 5773 5771 5770 5768 5767 5766 5765 5765 5765 5765 5765 5765 5765 5766
5838 5837 5835 5834 5832 5831 5829 5827 5825 5823 5820 5818 5815 5812 5809 5806 5803 5799 5796 5793 5790 5788 5784 5781 5778 5775 5772 5768 5765 5762 5760 5758 5757 5756 5755 5754 5754 5755 5755 5756 5756 5757 5757
5832 5831 5830 5828 5827 5825 5823 5821 5818 5816 5813 5810 5807 5804 5800 5797 5794 5791 5787 5784 5780 5777 5774 5770 5766 5763 5759 5756 5752 5749 5746 5745 5744 5743 5742 5742 5742 5743 5743 5744 5746 5747 5748
5826 5825 5823 5822 5820 5818 5816 5814 5811 5808 5805 5802 5798 5795 5791 5788 5784 5780 5776 5772 5769 5765 5761 5758 5754 5750 5746 5742 5738 5734 5731 5730 5728 5728 5728 5727 5728 5729 5730 5732 5734 5735 5737
5820 5818 5816 5814 5812 5810 5808 5805 5803 5800 5796 5793 5789 5785 5781 5777 5773 5768 5764 5759 5755 5751 5747 5743 5739 5734 5730 5726 5722 5718 5715 5713 5712 5712 5712 5712 5712 5714 5716 5718 5721 5723 5725
5812 5810 5808 5806 5804 5801 5799 5796 5793 5790 5786 5782 5778 5774 5770 5765 5760 5755 5750 5745 5740 5735 5730 5726 5721 5717 5712 5708 5704 5701 5698 5696 5694 5694 5695 5695 5696 5698 5701 5704 5707 5709 5712
5803 5802 5800 5797 5795 5792 5789 5786 5783 5779 5775 5771 5766 5762 5757 5752 5747 5741 5735 5729 5723 5718 5712 5707 5702 5697 5693 5689 5685 5682 5680 5678 5676 5676 5677 5678 5679 5681 5684 5688 5691 5695 5698
5794 5792 5790 5787 5784 5781 5778 5775 5771 5767 5763 5758 5754 5748 5743 5738 5732 5726 5719 5713 5707 5699 5693 5688 5682 5677 5674 5670 5665 5662 5660 5659 5657 5657 5658 5660 5661 5663 5667 5671 5674 5678 5683
5783 5781 5779 5776 5773 5770 5766 5762 5758 5754 5750 5745 5739 5734 5728 5722 5716 5710 5704 5697 5690 5683 5676 5669 5663 5658 5654 5650 5646 5642 5640 5638 5637 5636 5638 5641 5642 5645 5649 5652 5656 5661 5666